View from above orbital plane
|
View from above satellite
|
Ground track
|
The orbit data is extracted from the following two-line orbital elements,
1 31701U 07027A 21047.73569639 0.00000000 00000-0 00000-0 0 03
2 31701 63.3916 263.4701 0305620 19.7126 340.2874 13.40795575 01
Epoch (UTC): | 16 February 2021 17:39:24 |
Eccentricity: | 0.0305620 |
inclination: | 63.3916° |
perigee height: | 877 km |
apogee height: | 1335 km |
right ascension of ascending node: | 263.4701° |
argument of perigee: | 19.7126° |
revolutions per day: | 13.40795575 |
mean anomaly at epoch: | 340.2874° |
orbit number at epoch: | 0 |
The dashed part of the orbit path shows where the satellite is in the earth's shadow,
|
|